,,,PA_Meas_PMT16A,,PR_Meas_QMR101_102,,RH_Meas_QMH101,,SR_Meas_QMS101,,TA_Meas_QMH101,,GenWind,,GenWind,
date,time,status,PA,status,PR,status,RH,status,SR,status,TA,status,DirAvg,status,SpdAvg,
2012-09-04, 00:00:04,VALID,1001.53,VALID,0,VALID,80.7366,VALID,0,VALID,24.2671,VALID,114,VALID,0.935156,
2012-09-04, 00:01:04,VALID,1001.55,VALID,0,VALID,80.79,VALID,0,VALID,24.2458,VALID,114,VALID,0.735156,
2012-09-04, 00:02:04,VALID,1001.58,VALID,0,VALID,80.7595,VALID,0.104696,VALID,24.2458,VALID,114,VALID,0.739844,
2012-09-04, 00:03:04,VALID,1001.56,VALID,0,VALID,80.6069,VALID,0,VALID,24.2671,VALID,134,VALID,1.09766,
2012-09-04, 00:04:04,VALID,1001.58,VALID,0,VALID,80.3399,VALID,0,VALID,24.2653,VALID,136,VALID,0.85625,
2012-09-04, 00:05:04,VALID,1001.56,VALID,0,VALID,80.317,VALID,0,VALID,24.2848,VALID,131,VALID,1.13672,
2012-09-04, 00:06:04,VALID,1001.52,VALID,0,VALID,80.4315,VALID,0,VALID,24.3062,VALID,117,VALID,1.19531,
2012-09-04, 00:07:04,VALID,1001.56,VALID,0,VALID,80.8892,VALID,0,VALID,24.2866,VALID,117,VALID,1.11484,
2012-09-04, 00:08:04,VALID,1001.52,VALID,0,VALID,81.7514,VALID,0,VALID,24.2086,VALID,116,VALID,1.11641,
2012-09-04, 00:09:04,VALID,1001.49,VALID,0,VALID,82.5143,VALID,0,VALID,24.1696,VALID,118,VALID,0.877344,
2012-09-04, 00:10:04,VALID,1001.47,VALID,0,VALID,83.262,VALID,0,VALID,24.1305,VALID,111,VALID,0.777734,
2012-09-04, 00:11:04,VALID,1001.47,VALID,0,VALID,83.8343,VALID,0,VALID,24.111,VALID,112,VALID,0.725391,
2012-09-04, 00:12:04,VALID,1001.48,VALID,0,VALID,84.2157,VALID,0,VALID,24.072,VALID,112,VALID,0.830859,
2012-09-04, 00:13:04,VALID,1001.5,VALID,0,VALID,84.2692,VALID,0,VALID,24.0329,VALID,114,VALID,0.936719,
2012-09-04, 00:14:04,VALID,1001.49,VALID,0,VALID,84.2234,VALID,0,VALID,24.0134,VALID,111,VALID,1.14219,
2012-09-04, 00:15:04,VALID,1001.49,VALID,0,VALID,83.7885,VALID,0,VALID,23.9921,VALID,109,VALID,0.785547,
2012-09-04, 00:16:04,VALID,1001.46,VALID,0,VALID,84.2768,VALID,0,VALID,24.0134,VALID,105,VALID,0.525391,
2012-09-04, 00:17:04,VALID,1001.49,VALID,0,VALID,84.025,VALID,0,VALID,23.9726,VALID,105,VALID,0.295312,
2012-09-04, 00:18:04,VALID,1001.47,VALID,0,VALID,83.6969,VALID,0,VALID,23.9744,VALID,119,VALID,0.440234,
2012-09-04, 00:19:04,VALID,1001.49,VALID,0,VALID,83.3383,VALID,0,VALID,23.9744,VALID,149,VALID,0.642969,
2012-09-04, 00:20:04,VALID,1001.42,VALID,0,VALID,83.4299,VALID,0,VALID,23.9921,VALID,147,VALID,0.405469,
2012-09-04, 00:21:04,VALID,1001.38,VALID,0,VALID,83.1018,VALID,0,VALID,24.0134,VALID,147,VALID,0.373437,
2012-09-04, 00:22:04,VALID,1001.39,VALID,0,VALID,83.2697,VALID,0,VALID,24.0116,VALID,147,VALID,0.485547,
2012-09-04, 00:23:04,VALID,1001.35,VALID,0,VALID,82.995,VALID,0,VALID,24.0329,VALID,118,VALID,0.464453,
2012-09-04, 00:24:04,VALID,1001.32,VALID,0,VALID,83.1934,VALID,0,VALID,24.0311,VALID,118,VALID,0,
2012-09-04, 00:25:04,VALID,1001.3,VALID,0,VALID,83.4223,VALID,0,VALID,24.0329,VALID,118,VALID,0.0527344,
2012-09-04, 00:26:04,VALID,1001.3,VALID,0,VALID,83.3612,VALID,0,VALID,24.0134,VALID,118,VALID,0.05625,
2012-09-04, 00:27:04,VALID,1001.28,VALID,0,VALID,83.2544,VALID,0,VALID,24.0134,VALID,118,VALID,0,
2012-09-04, 00:28:04,VALID,1001.3,VALID,0,VALID,83.5672,VALID,0,VALID,24.0134,VALID,118,VALID,0.00234375,
2012-09-04, 00:29:04,VALID,1001.3,VALID,0,VALID,83.5062,VALID,0,VALID,24.0134,VALID,118,VALID,0.0929687,
2012-09-04, 00:30:04,VALID,1001.27,VALID,0,VALID,83.1018,VALID,0,VALID,23.9939,VALID,118,VALID,0,
2012-09-04, 00:31:04,VALID,1001.3,VALID,0,VALID,83.1705,VALID,0,VALID,23.9939,VALID,118,VALID,0.0921875,
2012-09-04, 00:32:04,VALID,1001.25,VALID,0,VALID,82.7738,VALID,0,VALID,23.9939,VALID,118,VALID,0.05625,
2012-09-04, 00:33:04,VALID,1001.28,VALID,0,VALID,83.0789,VALID,0,VALID,23.9939,VALID,118,VALID,0.214062,
2012-09-04, 00:34:04,VALID,1001.24,VALID,0,VALID,83.2163,VALID,0,VALID,23.9726,VALID,118,VALID,0.244531,
2012-09-04, 00:35:04,VALID,1001.22,VALID,0,VALID,83.4146,VALID,0,VALID,23.9354,VALID,118,VALID,0.289844,
2012-09-04, 00:36:04,VALID,1001.25,VALID,0,VALID,83.7503,VALID,0,VALID,23.9159,VALID,118,VALID,0.127344,
2012-09-04, 00:37:04,VALID,1001.2,VALID,0,VALID,83.9716,VALID,0,VALID,23.8573,VALID,118,VALID,0.410547,
2012-09-04, 00:38:04,VALID,1001.24,VALID,0,VALID,83.9945,VALID,0,VALID,23.8573,VALID,118,VALID,0.332812,
2012-09-04, 00:39:04,VALID,1001.2,VALID,0,VALID,83.9487,VALID,0,VALID,23.797,VALID,114,VALID,0.583203,
2012-09-04, 00:40:04,VALID,1001.2,VALID,0,VALID,84.17,VALID,0,VALID,23.8378,VALID,114,VALID,0.658594,
2012-09-04, 00:41:04,VALID,1001.21,VALID,0,VALID,84.582,VALID,0,VALID,23.8573,VALID,88,VALID,0.860547,
2012-09-04, 00:42:04,VALID,1001.22,VALID,0,VALID,85.322,VALID,0,VALID,23.8573,VALID,78,VALID,0.701172,
2012-09-04, 00:43:04,VALID,1001.18,VALID,0,VALID,85.8332,VALID,0,VALID,23.8378,VALID,78,VALID,0.366406,
2012-09-04, 00:44:04,VALID,1001.16,VALID,0,VALID,86.4283,VALID,0,VALID,23.797,VALID,78,VALID,0.251953,
2012-09-04, 00:45:04,VALID,1001.12,VALID,0,VALID,87.1532,VALID,0,VALID,23.8183,VALID,78,VALID,0.272656,
2012-09-04, 00:46:04,VALID,1001.11,VALID,0,VALID,87.3134,VALID,0,VALID,23.7988,VALID,78,VALID,0.375781,
2012-09-04, 00:47:04,VALID,1001.08,VALID,0,VALID,87.4583,VALID,0,VALID,23.7793,VALID,78,VALID,0.535156,
2012-09-04, 00:48:04,VALID,1001.08,VALID,0,VALID,87.6033,VALID,0,VALID,23.7402,VALID,78,VALID,0.736328,
2012-09-04, 00:49:04,VALID,1001.06,VALID,0,VALID,87.6949,VALID,0,VALID,23.7402,VALID,78,VALID,0.443359,
2012-09-04, 00:50:04,VALID,1001.05,VALID,0,VALID,87.8398,VALID,0,VALID,23.7207,VALID,78,VALID,0.258203,
2012-09-04, 00:51:04,VALID,1001,VALID,0,VALID,88.351,VALID,0,VALID,23.6817,VALID,78,VALID,0.502734,
2012-09-04, 00:52:04,VALID,1001.03,VALID,0,VALID,88.969,VALID,0,VALID,23.6622,VALID,56,VALID,0.475781,
2012-09-04, 00:53:04,VALID,1001.03,VALID,0,VALID,89.3352,VALID,0,VALID,23.6427,VALID,56,VALID,0.0917969,
2012-09-04, 00:54:04,VALID,1001.05,VALID,0,VALID,89.3352,VALID,0,VALID,23.6232,VALID,56,VALID,0,
2012-09-04, 00:55:04,VALID,1001.01,VALID,0,VALID,89.4191,VALID,0,VALID,23.6036,VALID,56,VALID,0.0566406,
2012-09-04, 00:56:04,VALID,1000.98,VALID,0,VALID,89.8311,VALID,0,VALID,23.6036,VALID,56,VALID,0.423047,
2012-09-04, 00:57:04,VALID,1000.95,VALID,0,VALID,90.1592,VALID,0,VALID,23.6036,VALID,56,VALID,0.765234,
2012-09-04, 00:58:04,VALID,1000.96,VALID,0,VALID,90.2737,VALID,0,VALID,23.6036,VALID,56,VALID,0.669922,
2012-09-04, 00:59:04,VALID,1000.97,VALID,0,VALID,90.4415,VALID,0,VALID,23.5841,VALID,56,VALID,0.645312,
2012-09-04, 01:00:04,VALID,1000.95,VALID,0,VALID,90.4568,VALID,0,VALID,23.5646,VALID,56,VALID,0.564844,
2012-09-04, 01:01:04,VALID,1000.92,VALID,0,VALID,90.8459,VALID,0,VALID,23.5256,VALID,56,VALID,0.689844,
2012-09-04, 01:02:04,VALID,1000.92,VALID,0,VALID,91.0671,VALID,0,VALID,23.5256,VALID,9,VALID,0.736719,
2012-09-04, 01:03:04,VALID,1000.88,VALID,0,VALID,91.0061,VALID,0,VALID,23.5256,VALID,9,VALID,0.54375,
2012-09-04, 01:04:04,VALID,1000.85,VALID,0,VALID,91.0061,VALID,0,VALID,23.5451,VALID,9,VALID,0.658203,
2012-09-04, 01:05:04,VALID,1000.88,VALID,0,VALID,91.174,VALID,0,VALID,23.5238,VALID,9,VALID,0.622266,
2012-09-04, 01:06:04,VALID,1000.8,VALID,0,VALID,91.4105,VALID,0,VALID,23.5451,VALID,9,VALID,0.614844,
2012-09-04, 01:07:04,VALID,1000.82,VALID,0,VALID,91.6088,VALID,0,VALID,23.5043,VALID,9,VALID,0.692969,
2012-09-04, 01:08:04,VALID,1000.81,VALID,0,VALID,91.9064,VALID,0,VALID,23.5043,VALID,9,VALID,0.450781,
2012-09-04, 01:09:04,VALID,1000.79,VALID,0,VALID,91.9827,VALID,0,VALID,23.5451,VALID,9,VALID,0.420312,
2012-09-04, 01:10:04,VALID,1000.78,VALID,0,VALID,91.9445,VALID,0,VALID,23.5451,VALID,9,VALID,0.1875,
2012-09-04, 01:11:04,VALID,1000.76,VALID,0,VALID,91.8911,VALID,0,VALID,23.5238,VALID,9,VALID,0,
2012-09-04, 01:12:04,VALID,1000.75,VALID,0,VALID,91.7843,VALID,0,VALID,23.5256,VALID,9,VALID,0.289844,
2012-09-04, 01:13:04,VALID,1000.75,VALID,0,VALID,91.6699,VALID,0,VALID,23.5256,VALID,9,VALID,0.457031,
2012-09-04, 01:14:04,VALID,1000.75,VALID,0,VALID,91.502,VALID,0,VALID,23.5043,VALID,9,VALID,0.579687,
2012-09-04, 01:15:04,VALID,1000.7,VALID,0,VALID,91.3189,VALID,0,VALID,23.4848,VALID,9,VALID,0.623828,
2012-09-04, 01:16:04,VALID,1000.68,VALID,0,VALID,91.2121,VALID,0,VALID,23.5451,VALID,9,VALID,0.589453,
2012-09-04, 01:17:04,VALID,1000.68,VALID,0,VALID,91.1053,VALID,0,VALID,23.5628,VALID,9,VALID,0.445313,
2012-09-04, 01:18:04,VALID,1000.63,VALID,0,VALID,91.1282,VALID,0,VALID,23.5646,VALID,9,VALID,0,
2012-09-04, 01:19:04,VALID,1000.61,VALID,0,VALID,91.0748,VALID,0,VALID,23.5433,VALID,9,VALID,0,
2012-09-04, 01:20:04,VALID,1000.6,VALID,0,VALID,91.0443,VALID,0,VALID,23.5646,VALID,9,VALID,0,
2012-09-04, 01:21:04,VALID,1000.59,VALID,0,VALID,91.0595,VALID,0,VALID,23.5841,VALID,9,VALID,0.272266,
2012-09-04, 01:22:04,VALID,1000.59,VALID,0,VALID,90.5941,VALID,0,VALID,23.5646,VALID,9,VALID,0.591797,
2012-09-04, 01:23:04,VALID,1000.59,VALID,0,VALID,90.0982,VALID,0,VALID,23.5823,VALID,23,VALID,0.86875,
2012-09-04, 01:24:04,VALID,1000.59,VALID,0,VALID,89.938,VALID,0,VALID,23.6232,VALID,32,VALID,1.06875,
2012-09-04, 01:25:04,VALID,1000.59,VALID,0,VALID,90.0066,VALID,0,VALID,23.6019,VALID,32,VALID,0.717969,
2012-09-04, 01:26:04,VALID,1000.54,VALID,0,VALID,90.0448,VALID,0,VALID,23.6214,VALID,32,VALID,0.601172,
2012-09-04, 01:27:04,VALID,1000.53,VALID,0,VALID,89.9456,VALID,0,VALID,23.6214,VALID,32,VALID,0.669141,
2012-09-04, 01:28:04,VALID,1000.48,VALID,0,VALID,89.7854,VALID,0,VALID,23.6622,VALID,32,VALID,0.931641,
2012-09-04, 01:29:04,VALID,1000.45,VALID,0,VALID,89.6328,VALID,0,VALID,23.6799,VALID,32,VALID,0.791797,
2012-09-04, 01:30:04,VALID,1000.44,VALID,0,VALID,89.7091,VALID,0,VALID,23.7189,VALID,32,VALID,0.398047,
2012-09-04, 01:31:04,VALID,1000.47,VALID,0,VALID,89.9303,VALID,0,VALID,23.7597,VALID,32,VALID,0.433594,
2012-09-04, 01:32:04,VALID,1000.42,VALID,0,VALID,89.999,VALID,0,VALID,23.7579,VALID,32,VALID,0.639063,
2012-09-04, 01:33:04,VALID,1000.41,VALID,0,VALID,89.8083,VALID,0,VALID,23.7597,VALID,32,VALID,0.394922,
2012-09-04, 01:34:04,VALID,1000.38,VALID,0,VALID,89.7549,VALID,0,VALID,23.7384,VALID,32,VALID,0,
2012-09-04, 01:35:04,VALID,1000.35,VALID,0,VALID,89.8464,VALID,0,VALID,23.7384,VALID,32,VALID,0,
2012-09-04, 01:36:04,VALID,1000.32,VALID,0,VALID,89.999,VALID,0,VALID,23.7402,VALID,32,VALID,0,
2012-09-04, 01:37:04,VALID,1000.28,VALID,0,VALID,90.0677,VALID,0,VALID,23.7189,VALID,32,VALID,0.282422,
2012-09-04, 01:38:04,VALID,1000.25,VALID,0,VALID,89.8617,VALID,0,VALID,23.7012,VALID,32,VALID,0.633594,
2012-09-04, 01:39:04,VALID,1000.27,VALID,0,VALID,90.0295,VALID,0,VALID,23.6604,VALID,32,VALID,0.660547,
2012-09-04, 01:40:04,VALID,1000.29,VALID,0,VALID,90.1974,VALID,0,VALID,23.6214,VALID,32,VALID,0.608594,
2012-09-04, 01:41:04,VALID,1000.23,VALID,0,VALID,90.2889,VALID,0,VALID,23.6232,VALID,30,VALID,0.735156,
2012-09-04, 01:42:04,VALID,1000.24,VALID,0,VALID,90.5178,VALID,0,VALID,23.6019,VALID,28,VALID,0.526172,
2012-09-04, 01:43:04,VALID,1000.19,VALID,0,VALID,90.6704,VALID,0,VALID,23.5628,VALID,28,VALID,0.590234,
2012-09-04, 01:44:04,VALID,1000.18,VALID,0,VALID,90.9298,VALID,0,VALID,23.5451,VALID,28,VALID,1.01055,
2012-09-04, 01:45:04,VALID,1000.16,VALID,0,VALID,91.1968,VALID,0,VALID,23.4653,VALID,28,VALID,0.707031,
2012-09-04, 01:46:04,VALID,1000.13,VALID,0,VALID,91.2503,VALID,0,VALID,23.4653,VALID,28,VALID,0.572656,
2012-09-04, 01:47:04,VALID,1000.14,VALID,0,VALID,91.235,VALID,0,VALID,23.4458,VALID,28,VALID,0.419531,
2012-09-04, 01:48:04,VALID,1000.13,VALID,0,VALID,91.1892,VALID,0,VALID,23.4475,VALID,28,VALID,0.415625,
2012-09-04, 01:49:04,VALID,1000.17,VALID,0,VALID,91.0061,VALID,0,VALID,23.4475,VALID,28,VALID,0.637891,
2012-09-04, 01:50:04,VALID,1000.15,VALID,0,VALID,90.9985,VALID,0,VALID,23.4263,VALID,14,VALID,0.762109,
2012-09-04, 01:51:04,VALID,1000.18,VALID,0,VALID,90.9374,VALID,0,VALID,23.4458,VALID,11,VALID,0.696094,
2012-09-04, 01:52:04,VALID,1000.16,VALID,0,VALID,90.8459,VALID,0,VALID,23.4475,VALID,11,VALID,0.802734,
2012-09-04, 01:53:04,VALID,1000.17,VALID,0,VALID,90.7543,VALID,0,VALID,23.428,VALID,11,VALID,0.538281,
2012-09-04, 01:54:04,VALID,1000.15,VALID,0,VALID,90.678,VALID,0,VALID,23.3695,VALID,11,VALID,0.623828,
2012-09-04, 01:55:04,VALID,1000.11,VALID,0,VALID,91.0748,VALID,0,VALID,23.35,VALID,11,VALID,0.675,
2012-09-04, 01:56:04,VALID,1000.07,VALID,0,VALID,91.0366,VALID,0,VALID,23.35,VALID,11,VALID,0.734766,
2012-09-04, 01:57:04,VALID,1000.06,VALID,0,VALID,90.823,VALID,0,VALID,23.35,VALID,11,VALID,0.075,
2012-09-04, 01:58:04,VALID,1000.06,VALID,0,VALID,90.8688,VALID,0,VALID,23.3482,VALID,11,VALID,0.647266,
2012-09-04, 01:59:04,VALID,1000.06,VALID,0,VALID,90.7543,VALID,0,VALID,23.3677,VALID,11,VALID,0.229687,
2012-09-04, 02:00:04,VALID,1000.03,VALID,0,VALID,90.7009,VALID,0,VALID,23.3677,VALID,11,VALID,0.610156,
2012-09-04, 02:01:04,VALID,1000.04,VALID,0,VALID,90.6399,VALID,0,VALID,23.4085,VALID,299,VALID,0.360938,
2012-09-04, 02:02:04,VALID,1000.02,VALID,0,VALID,90.5788,VALID,0,VALID,23.428,VALID,299,VALID,0.119531,
2012-09-04, 02:03:04,VALID,1000.01,VALID,0,VALID,90.5407,VALID,0,VALID,23.428,VALID,299,VALID,0,
2012-09-04, 02:04:04,VALID,1000.03,VALID,0,VALID,90.6399,VALID,0,VALID,23.4475,VALID,299,VALID,0,
2012-09-04, 02:05:04,VALID,1000.02,VALID,0,VALID,90.472,VALID,0,VALID,23.4067,VALID,299,VALID,0,
2012-09-04, 02:06:04,VALID,999.989,VALID,0,VALID,90.3423,VALID,0,VALID,23.4067,VALID,299,VALID,0,
2012-09-04, 02:07:04,VALID,999.984,VALID,0,VALID,90.5712,VALID,0,VALID,23.428,VALID,299,VALID,0,
2012-09-04, 02:08:04,VALID,999.994,VALID,0,VALID,90.2813,VALID,0,VALID,23.4688,VALID,299,VALID,0.465625,
2012-09-04, 02:09:04,VALID,999.994,VALID,0,VALID,89.8464,VALID,0,VALID,23.4688,VALID,299,VALID,0.275781,
2012-09-04, 02:10:04,VALID,1000,VALID,0,VALID,89.3505,VALID,0,VALID,23.5079,VALID,299,VALID,0.122266,
2012-09-04, 02:11:04,VALID,999.982,VALID,0,VALID,89.3657,VALID,0,VALID,23.5664,VALID,299,VALID,0.310937,
2012-09-04, 02:12:04,VALID,1000,VALID,0,VALID,89.1521,VALID,0,VALID,23.5451,VALID,299,VALID,0.375781,
2012-09-04, 02:13:04,VALID,999.998,VALID,0,VALID,88.824,VALID,0,VALID,23.5646,VALID,299,VALID,0.365625,
2012-09-04, 02:14:04,VALID,1000.01,VALID,0,VALID,88.8011,VALID,0,VALID,23.6054,VALID,299,VALID,0.318359,
2012-09-04, 02:15:04,VALID,1000.02,VALID,0,VALID,88.6638,VALID,0,VALID,23.5841,VALID,299,VALID,0.232422,
2012-09-04, 02:16:04,VALID,1000.04,VALID,0,VALID,88.7249,VALID,0,VALID,23.5451,VALID,299,VALID,0.344141,
2012-09-04, 02:17:04,VALID,1000.06,VALID,0,VALID,89.03,VALID,0,VALID,23.5274,VALID,348,VALID,0.801953,
2012-09-04, 02:18:04,VALID,1000.07,VALID,0,VALID,89.1979,VALID,0,VALID,23.4671,VALID,44,VALID,0.966797,
2012-09-04, 02:19:04,VALID,1000.08,VALID,0,VALID,89.0682,VALID,0,VALID,23.4884,VALID,44,VALID,0.837891,
2012-09-04, 02:20:04,VALID,1000.13,VALID,0,VALID,88.8851,VALID,0,VALID,23.5079,VALID,53,VALID,1.05117,
2012-09-04, 02:21:04,VALID,1000.13,VALID,0,VALID,89.3428,VALID,0,VALID,23.4671,VALID,64,VALID,1.03281,
2012-09-04, 02:22:04,VALID,1000.15,VALID,0,VALID,89.7167,VALID,0,VALID,23.4493,VALID,58,VALID,1.08633,
2012-09-04, 02:23:04,VALID,1000.13,VALID,0,VALID,90.35,VALID,0,VALID,23.4103,VALID,54,VALID,1.10703,
2012-09-04, 02:24:04,VALID,1000.14,VALID,0,VALID,90.5407,VALID,0,VALID,23.3908,VALID,45,VALID,1.07383,
2012-09-04, 02:25:04,VALID,1000.17,VALID,0,VALID,90.7467,VALID,0,VALID,23.3305,VALID,45,VALID,0.987109,
2012-09-04, 02:26:04,VALID,1000.16,VALID,0,VALID,90.9069,VALID,0,VALID,23.3127,VALID,44,VALID,1.375,
2012-09-04, 02:27:04,VALID,1000.14,VALID,0,VALID,91.2884,VALID,0,VALID,23.2542,VALID,40,VALID,1.71953,
2012-09-04, 02:28:04,VALID,1000.17,VALID,0,VALID,91.6088,VALID,0,VALID,23.1939,VALID,52,VALID,1.67969,
2012-09-04, 02:29:04,VALID,1000.15,VALID,0,VALID,91.9598,VALID,0,VALID,23.2152,VALID,54,VALID,1.69922,
2012-09-04, 02:30:04,VALID,1000.17,VALID,0,VALID,92.0819,VALID,0,VALID,23.1762,VALID,54,VALID,1.59687,
2012-09-04, 02:31:04,VALID,1000.19,VALID,0,VALID,92.2116,VALID,0,VALID,23.1762,VALID,58,VALID,1.38672,
2012-09-04, 02:32:04,VALID,1000.17,VALID,0,VALID,92.265,VALID,0,VALID,23.1566,VALID,57,VALID,1.19141,
2012-09-04, 02:33:04,VALID,1000.2,VALID,0,VALID,92.265,VALID,0,VALID,23.1371,VALID,55,VALID,1.06875,
2012-09-04, 02:34:04,VALID,1000.15,VALID,0,VALID,92.2879,VALID,0,VALID,23.1159,VALID,44,VALID,1.36328,
2012-09-04, 02:35:04,VALID,1000.19,VALID,0,VALID,92.3871,VALID,0,VALID,23.1371,VALID,44,VALID,1.10078,
2012-09-04, 02:36:04,VALID,1000.22,VALID,0,VALID,92.4252,VALID,0,VALID,23.1371,VALID,44,VALID,0.470313,
2012-09-04, 02:37:04,VALID,1000.2,VALID,0,VALID,92.4634,VALID,0,VALID,23.1159,VALID,44,VALID,0.0273438,
2012-09-04, 02:38:04,VALID,1000.22,VALID,0,VALID,92.5397,VALID,0,VALID,23.0964,VALID,44,VALID,0,
2012-09-04, 02:39:04,VALID,1000.2,VALID,0,VALID,92.5854,VALID,0,VALID,23.0769,VALID,44,VALID,0,
2012-09-04, 02:40:04,VALID,1000.19,VALID,0,VALID,92.6388,VALID,0,VALID,23.0556,VALID,44,VALID,0,
2012-09-04, 02:41:04,VALID,1000.21,VALID,0,VALID,92.738,VALID,0,VALID,23.0556,VALID,44,VALID,0.439063,
2012-09-04, 02:42:04,VALID,1000.25,VALID,0,VALID,92.7304,VALID,0,VALID,23.0573,VALID,65,VALID,0.782031,
2012-09-04, 02:43:04,VALID,1000.24,VALID,0,VALID,92.6083,VALID,0,VALID,23.0378,VALID,88,VALID,1.08516,
2012-09-04, 02:44:04,VALID,1000.27,VALID,0,VALID,92.4863,VALID,0,VALID,23.0769,VALID,101,VALID,1.34102,
2012-09-04, 02:45:04,VALID,1000.26,VALID,0,VALID,92.2574,VALID,0,VALID,23.0769,VALID,100,VALID,1.01328,
2012-09-04, 02:46:04,VALID,1000.28,VALID,0,VALID,92.0743,VALID,0,VALID,23.0769,VALID,100,VALID,0.738672,
2012-09-04, 02:47:04,VALID,1000.28,VALID,0,VALID,91.9445,VALID,0,VALID,23.0964,VALID,100,VALID,0.878125,
2012-09-04, 02:48:04,VALID,1000.28,VALID,0,VALID,91.8454,VALID,0,VALID,23.0964,VALID,100,VALID,0.629297,
2012-09-04, 02:49:04,VALID,1000.27,VALID,0,VALID,91.8911,VALID,0,VALID,23.1159,VALID,100,VALID,0.517187,
2012-09-04, 02:50:04,VALID,1000.27,VALID,0,VALID,91.9293,VALID,0,VALID,23.1336,VALID,100,VALID,0.350391,
2012-09-04, 02:51:04,VALID,1000.25,VALID,0,VALID,91.9827,VALID,0,VALID,23.1744,VALID,100,VALID,0.56875,
2012-09-04, 02:52:04,VALID,1000.23,VALID,0,VALID,92.0209,VALID,0,VALID,23.1939,VALID,100,VALID,0.366406,
2012-09-04, 02:53:04,VALID,1000.21,VALID,0,VALID,91.8225,VALID,0,VALID,23.1921,VALID,100,VALID,0.540234,
2012-09-04, 02:54:04,VALID,1000.19,VALID,0,VALID,91.6928,VALID,0,VALID,23.2117,VALID,108,VALID,0.576563,
2012-09-04, 02:55:04,VALID,1000.18,VALID,0,VALID,91.6546,VALID,0,VALID,23.2312,VALID,123,VALID,0.807422,
2012-09-04, 02:56:04,VALID,1000.15,VALID,0,VALID,91.6012,VALID,0,VALID,23.2312,VALID,137,VALID,0.939453,
2012-09-04, 02:57:04,VALID,1000.12,VALID,0,VALID,91.6165,VALID,0,VALID,23.2312,VALID,137,VALID,0.835938,
2012-09-04, 02:58:04,VALID,1000.1,VALID,0,VALID,91.6165,VALID,0,VALID,23.2915,VALID,137,VALID,0.546875,
2012-09-04, 02:59:04,VALID,1000.14,VALID,0,VALID,91.5554,VALID,0,VALID,23.2897,VALID,137,VALID,0.451562,
2012-09-04, 03:00:04,VALID,1000.14,VALID,0,VALID,91.4486,VALID,0,VALID,23.3092,VALID,137,VALID,0.529688,
2012-09-04, 03:01:04,VALID,1000.14,VALID,0,VALID,91.4715,VALID,0,VALID,23.2897,VALID,137,VALID,0.449219,
2012-09-04, 03:02:04,VALID,1000.14,VALID,0,VALID,91.4563,VALID,0,VALID,23.3092,VALID,137,VALID,0.275,
2012-09-04, 03:03:04,VALID,1000.12,VALID,0,VALID,91.3876,VALID,0,VALID,23.3092,VALID,137,VALID,0.475,
2012-09-04, 03:04:04,VALID,1000.13,VALID,0,VALID,91.1968,VALID,0,VALID,23.3305,VALID,137,VALID,0.608203,
2012-09-04, 03:05:04,VALID,1000.12,VALID,0,VALID,90.968,VALID,0,VALID,23.3092,VALID,137,VALID,0.672266,
2012-09-04, 03:06:04,VALID,1000.11,VALID,0,VALID,90.9222,VALID,0,VALID,23.35,VALID,137,VALID,0.659375,
2012-09-04, 03:07:04,VALID,1000.12,VALID,0,VALID,90.7314,VALID,0,VALID,23.35,VALID,137,VALID,0.796875,
2012-09-04, 03:08:04,VALID,1000.13,VALID,0,VALID,90.411,VALID,0,VALID,23.3695,VALID,137,VALID,0.710156,
2012-09-04, 03:09:04,VALID,1000.13,VALID,0,VALID,90.144,VALID,0,VALID,23.3872,VALID,137,VALID,0.573828,
2012-09-04, 03:10:04,VALID,1000.14,VALID,0,VALID,89.8006,VALID,0,VALID,23.4263,VALID,137,VALID,1.08398,
2012-09-04, 03:11:04,VALID,1000.11,VALID,0,VALID,89.4344,VALID,0,VALID,23.5061,VALID,134,VALID,1.2,
2012-09-04, 03:12:04,VALID,1000.11,VALID,0,VALID,89.0377,VALID,0,VALID,23.5646,VALID,123,VALID,0.967188,
2012-09-04, 03:13:04,VALID,1000.13,VALID,0,VALID,88.9461,VALID,0,VALID,23.5433,VALID,122,VALID,0.946484,
2012-09-04, 03:14:04,VALID,1000.12,VALID,0,VALID,89.1292,VALID,0,VALID,23.5238,VALID,122,VALID,0.778125,
2012-09-04, 03:15:04,VALID,1000.13,VALID,0,VALID,89.1979,VALID,0,VALID,23.5043,VALID,122,VALID,0.607422,
2012-09-04, 03:16:04,VALID,1000.15,VALID,0,VALID,89.1445,VALID,0,VALID,23.5433,VALID,127,VALID,1.00273,
2012-09-04, 03:17:04,VALID,1000.12,VALID,0,VALID,89.0148,VALID,0,VALID,23.5841,VALID,124,VALID,0.927734,
2012-09-04, 03:18:04,VALID,1000.12,VALID,0,VALID,88.6714,VALID,0,VALID,23.6036,VALID,110,VALID,0.825,
2012-09-04, 03:19:04,VALID,1000.14,VALID,0,VALID,88.4883,VALID,0,VALID,23.6019,VALID,133,VALID,1.08516,
2012-09-04, 03:20:04,VALID,1000.14,VALID,0,VALID,88.3129,VALID,0,VALID,23.6409,VALID,131,VALID,0.885156,
2012-09-04, 03:21:04,VALID,1000.13,VALID,0,VALID,88.0153,VALID,0,VALID,23.6622,VALID,125,VALID,1.075,
2012-09-04, 03:22:04,VALID,1000.15,VALID,0,VALID,87.8169,VALID,0,VALID,23.7207,VALID,128,VALID,1.14414,
2012-09-04, 03:23:04,VALID,1000.15,VALID,0,VALID,87.4202,VALID,0,VALID,23.7597,VALID,130,VALID,1.1918,
2012-09-04, 03:24:04,VALID,1000.16,VALID,0,VALID,87.0769,VALID,0,VALID,23.7988,VALID,131,VALID,1.25117,
2012-09-04, 03:25:04,VALID,1000.12,VALID,0,VALID,87.0006,VALID,0,VALID,23.8165,VALID,132,VALID,1.23516,
2012-09-04, 03:26:04,VALID,1000.12,VALID,0,VALID,86.7869,VALID,0,VALID,23.8165,VALID,131,VALID,1.30742,
2012-09-04, 03:27:04,VALID,1000.14,VALID,0,VALID,86.4512,VALID,0,VALID,23.875,VALID,149,VALID,1.56133,
2012-09-04, 03:28:04,VALID,1000.1,VALID,0,VALID,85.879,VALID,0,VALID,23.9744,VALID,145,VALID,1.75742,
2012-09-04, 03:29:04,VALID,1000.13,VALID,0,VALID,85.406,VALID,0,VALID,24.0506,VALID,141,VALID,1.64727,
2012-09-04, 03:30:04,VALID,1000.12,VALID,0,VALID,84.7727,VALID,0,VALID,24.1287,VALID,143,VALID,1.53672,
2012-09-04, 03:31:04,VALID,1000.11,VALID,0,VALID,84.498,VALID,0,VALID,24.1891,VALID,144,VALID,1.49961,
2012-09-04, 03:32:04,VALID,1000.09,VALID,0,VALID,84.3683,VALID,0,VALID,24.2086,VALID,154,VALID,1.54102,
2012-09-04, 03:33:04,VALID,1000.08,VALID,0,VALID,84.1089,VALID,0,VALID,24.2067,VALID,143,VALID,1.51094,
2012-09-04, 03:34:04,VALID,1000.11,VALID,0,VALID,84.0555,VALID,0,VALID,24.2263,VALID,148,VALID,1.55234,
2012-09-04, 03:35:04,VALID,1000.08,VALID,0,VALID,83.9945,VALID,0.104696,VALID,24.2458,VALID,139,VALID,1.43828,
2012-09-04, 03:36:04,VALID,1000.08,VALID,0,VALID,84.0479,VALID,0,VALID,24.2067,VALID,138,VALID,1.06016,
2012-09-04, 03:37:04,VALID,1000.14,VALID,0,VALID,84.025,VALID,0,VALID,24.2104,VALID,136,VALID,1.18477,
2012-09-04, 03:38:04,VALID,1000.14,VALID,0,VALID,84.1013,VALID,0,VALID,24.2104,VALID,148,VALID,0.904688,
2012-09-04, 03:39:04,VALID,1000.16,VALID,0,VALID,83.9258,VALID,0,VALID,24.2104,VALID,140,VALID,0.971484,
2012-09-04, 03:40:04,VALID,1000.17,VALID,0,VALID,83.8724,VALID,0,VALID,24.2299,VALID,150,VALID,0.946094,
2012-09-04, 03:41:04,VALID,1000.18,VALID,0,VALID,83.552,VALID,0,VALID,24.269,VALID,146,VALID,1.21328,
2012-09-04, 03:42:04,VALID,1000.2,VALID,0,VALID,83.4528,VALID,0,VALID,24.2671,VALID,153,VALID,1.25312,
2012-09-04, 03:43:04,VALID,1000.19,VALID,0,VALID,83.3307,VALID,0,VALID,24.2866,VALID,142,VALID,1.27539,
2012-09-04, 03:44:04,VALID,1000.18,VALID,0,VALID,83.3002,VALID,0,VALID,24.2866,VALID,143,VALID,1.11914,
2012-09-04, 03:45:04,VALID,1000.19,VALID,0,VALID,83.3307,VALID,0,VALID,24.2671,VALID,144,VALID,0.954297,
2012-09-04, 03:46:04,VALID,1000.2,VALID,0,VALID,83.4528,VALID,0,VALID,24.2671,VALID,143,VALID,0.828906,
2012-09-04, 03:47:04,VALID,1000.2,VALID,0,VALID,83.5901,VALID,0,VALID,24.2086,VALID,143,VALID,0.641016,